PDT,Max TemperatureF,Mean TemperatureF,Min TemperatureF,Max Dew PointF,MeanDew PointF,Min DewpointF,Max Humidity, Mean Humidity, Min Humidity, Max Sea Level PressureIn, Mean Sea Level PressureIn, Min Sea Level PressureIn, Max VisibilityMiles, Mean VisibilityMiles, Min VisibilityMiles, Max Wind SpeedMPH, Mean Wind SpeedMPH, Max Gust SpeedMPH,PrecipitationIn, CloudCover, Events, WindDirDegrees
2013-3-1,50,50,49,47,47,46,93,90,86,30.30,30.27,30.25,4,1,0,20,13,35,1.84,8,Fog-Rain,185
2013-3-2,49,43,37,47,43,34,93,85,76,30.25,30.17,30.11,6,2,0,15,6,22,1.01,7,Fog-Rain,247
2013-3-3,51,42,32,40,34,29,92,74,56,30.31,30.29,30.26,6,4,0,14,4,22,0.07,4,Fog-Rain,15
2013-3-4,53,41,29,35,30,25,92,71,50,30.30,30.16,29.90,7,5,0,15,6,20,0.00,1,Fog,63
2013-3-5,46,40,34,41,36,30,92,81,70,29.89,29.79,29.71,7,3,0,8,3,12,0.44,6,Fog-Rain,77
2013-3-6,48,41,33,41,38,30,89,83,76,29.88,29.72,29.60,7,3,0,7,1,12,0.09,8,Fog-Rain,51
2013-3-7,53,44,35,43,38,33,86,73,59,30.09,30.01,29.88,7,4,0,10,3,14,0.02,6,Fog-Rain,91
2013-3-8,54,42,30,39,33,27,92,73,54,30.25,30.16,30.09,6,3,0,13,3,15,T,1,Fog,355
2013-3-9,52,42,31,40,33,28,92,73,54,30.51,30.40,30.26,5,3,0,12,2,15,0.00,4,Fog,255
2013-3-10,48,44,39,43,39,36,89,84,79,30.50,30.46,30.42,4,2,0,5,1,6,0.14,8,Fog-Rain,312
2013-3-11,51,44,37,47,40,34,92,82,71,30.44,30.32,30.11,5,2,0,16,4,24,0.55,7,Fog-Rain,145
2013-3-12,51,50,49,48,47,46,93,88,83,30.11,30.05,30.00,3,1,0,18,9,29,5.47,8,Fog-Rain,177
2013-3-13,52,51,50,48,47,46,89,86,83,30.14,30.11,30.06,5,1,0,16,7,28,2.02,8,Fog-Rain,169
2013-3-14,51,50,49,47,46,44,93,87,80,30.13,30.03,30.00,5,2,0,17,8,32,1.36,8,Fog-Rain,171
2013-3-15,52,50,47,48,46,45,93,88,83,30.21,30.17,30.14,5,1,0,14,6,20,0.35,8,Fog-Rain,194
2013-3-16,48,45,41,45,41,35,93,82,70,30.15,30.03,29.95,5,2,0,18,7,26,0.52,8,Fog-Rain,250
2013-3-17,48,44,39,37,35,31,79,70,60,30.23,30.18,30.05,5,3,1,20,6,26,0.08,8,Rain,264
2013-3-18,51,43,34,40,36,30,89,70,50,30.26,30.18,30.13,6,4,1,20,6,29,0.21,6,Rain,266
2013-3-19,51,42,33,45,38,30,89,73,56,30.19,29.78,29.44,5,3,1,21,7,36,0.56,6,Rain,130
2013-3-20,50,43,35,47,41,30,86,72,58,30.04,29.51,29.28,5,2,0,30,13,37,0.94,8,Fog-Rain,224
2013-3-21,47,41,34,37,34,30,89,75,60,30.25,30.18,30.05,5,4,1,15,5,23,0.15,7,Rain,281
2013-3-22,49,42,34,33,30,28,85,66,46,30.38,30.31,30.25,8,6,4,15,6,20,0.01,3,,305
2013-3-23,51,43,35,36,33,30,82,66,50,30.39,30.35,30.29,9,8,7,13,5,16,0.00,6,,111
2013-3-24,53,47,40,38,35,33,85,66,46,30.29,30.20,30.10,9,8,7,12,3,14,T,8,Rain,79
2013-3-25,61,49,37,39,36,32,82,60,37,30.09,30.01,29.96,10,9,7,12,2,28,0.00,5,,261
2013-3-26,56,51,45,45,43,38,86,76,66,30.02,30.00,29.97,10,8,6,9,3,21,T,8,,238
2013-3-27,57,51,45,49,45,42,89,83,77,30.00,29.97,29.94,9,5,0,6,2,15,0.09,7,Fog-Rain,25
2013-3-28,61,54,46,49,46,42,86,74,62,30.17,30.09,30.00,9,6,0,10,3,14,0.07,8,Fog-Rain,247
2013-3-29,62,52,41,47,44,39,93,77,60,30.27,30.23,30.16,9,4,0,14,3,21,0.00,4,Fog,307
2013-3-30,73,55,36,45,37,32,89,59,28,30.26,30.17,30.04,10,9,6,15,5,18,0.00,0,,30
2013-3-31,70,56,41,45,41,35,86,62,37,30.04,29.99,29.94,10,8,2,13,5,16,0.00,2,,217